Find Starlink 11478

NORAD ID: 62557 Int'l Des: 2025-006 Owner: SPXS Country: US Constellation: starlink operational
LEOCIRCULAR

Live Position

Loading 3D Globe...

About Starlink 11478

Description loading...

Upcoming Passes

Passes for default location (London). Set your location on the main map for personalized predictions.

Altitude History

Loading altitude history...

Two-Line Element Set

1 62557U 25006D 26123.82510854 .00196870 00000-0 14987-2 0 9997
2 62557 42.9973 167.5689 0002377 65.8765 294.2351 15.70887050 75277
Epoch: May 3, 2026 • Age: 7 hours

Current Status

Altitude 355.2 km
Velocity 7.70 km/s
Sub-Earth Point 12.57°N, 71.26°E
Launch Date Jan 10, 2025
Age 1.3 years
Type internet

Technical Details

Classification Payload
Mass 960.00 kg
Dry Mass 910.00 kg
Total Mass 960.00 kg
Length 0.30 m
Diameter 4.10 m
Span 29.00 m
Shape Box + pan
Manufacturer SPXS
Bus Type Starlink V2MD
Phase Status In Orbit
Owner/State SPXS/US

Most Searched